Weather History for Kahului, HI

Change the Weather History Date:

Thursday, November 8, 2012

  Actual Average Record
Temperature  
Mean Temperature 75 °F 77 °F  
Max Temperature 85 °F 85 °F 92 °F (1955)
Min Temperature 64 °F 69 °F 58 °F (1949)
Degree Days  
Heating Degree Days 0 0  
Month to date heating degree days 0 0  
Since 1 July heating degree days 0 0  
Cooling Degree Days 10 12  
Month to date cooling degree days 81 96  
Year to date cooling degree days 3423 3472  
Growing Degree Days 24 (Base 50)    
Moisture  
Dew Point 71 °F    
Average Humidity 81    
Maximum Humidity 100    
Minimum Humidity 61    
Precipitation  
Precipitation 0.02 in 0.07 in 1.22 in (1996)
Month to date precipitation 0.02 0.46  
Year to date precipitation 4.73 12.74  
Snow  
Snow 0.00 in - - ()
Month to date snowfall 0.0  
Since 1 July snowfall 0.0  
Since 1 September snowfall 0.0  
Snow Depth 0.00 in    
Sea Level Pressure  
Sea Level Pressure 30.08 in    
Wind  
Wind Speed 13 mph (NE)    
Max Wind Speed 23 mph    
Max Gust Speed 29 mph    
Visibility 10 miles    
Events      
T = Trace of Precipitation, MM = Missing Value Source: NWS Daily Summary

Daily Weather History Graph

Daily Weather History Graph

Search for Another Location

Airport:

Trip Planner

Search our weather history database for the weather conditions in past years. The results will help you decide how hot, cold, wet, or windy it might be!

Date:

Astronomy

Nov. 08, 2012 Rise Set
Actual Time 6:32 AM HST 5:46 PM HST
Civil Twilight 6:09 AM HST 6:09 PM HST
Nautical Twilight 5:42 AM HST 6:36 PM HST
Astronomical Twilight 5:16 AM HST 7:02 PM HST
Moon 1:20 AM HST (11/8) 1:56 PM HST (11/8)
Length of Visible Light 12h 00m
Length of Day
11h 14m
Waning Crescent, 31% of the Moon is Illuminated
Nov 8
Waning Crescent
Nov 13
New
Nov 20
First Quarter
Nov 28
Full
Dec 6
Last Quarter

Hourly Weather History & Observations

Time (HST) Temp. Heat Index Dew Point Humidity Pressure Visibility Wind Dir Wind Speed Gust Speed Precip Events Conditions
12:54 AM 73.0 °F - 71.1 °F 93% 30.05 in 10.0 mi NE 15.0 mph - N/A   Clear
1:54 AM 72.0 °F - 70.0 °F 93% 30.05 in 10.0 mi ESE 8.1 mph 21.9 mph N/A   Clear
2:54 AM 71.1 °F - 66.9 °F 87% 30.04 in 10.0 mi ENE 9.2 mph - N/A   Clear
3:54 AM 73.0 °F - 70.0 °F 90% 30.05 in 10.0 mi NE 13.8 mph - N/A   Clear
4:54 AM 66.0 °F - 64.9 °F 96% 30.06 in 10.0 mi Calm Calm - N/A   Clear
5:54 AM 64.0 °F - 64.0 °F 100% 30.07 in 10.0 mi Calm Calm - N/A   Clear
6:54 AM 73.0 °F - 71.1 °F 93% 30.08 in 10.0 mi NE 10.4 mph - N/A   Clear
7:54 AM 77.0 °F - 71.1 °F 82% 30.10 in 10.0 mi NE 11.5 mph - 0.01 in   Partly Cloudy
8:54 AM 79.0 °F - 72.0 °F 79% 30.11 in 10.0 mi ENE 12.7 mph 20.7 mph N/A   Scattered Clouds
9:54 AM 80.1 °F 84.2 °F 73.0 °F 79% 30.11 in 10.0 mi NE 13.8 mph 19.6 mph N/A   Scattered Clouds
10:54 AM 82.0 °F 86.7 °F 72.0 °F 71% 30.10 in 10.0 mi ENE 16.1 mph 24.2 mph N/A   Scattered Clouds
11:54 AM 84.0 °F 89.0 °F 71.1 °F 65% 30.08 in 10.0 mi ENE 17.3 mph 24.2 mph N/A   Clear
12:54 PM 84.0 °F 89.0 °F 71.1 °F 65% 30.06 in 10.0 mi NE 18.4 mph 25.3 mph N/A   Partly Cloudy
1:54 PM 84.0 °F 88.4 °F 70.0 °F 63% 30.04 in 10.0 mi NE 21.9 mph 26.5 mph N/A   Partly Cloudy
2:54 PM 84.0 °F 88.4 °F 70.0 °F 63% 30.04 in 10.0 mi NE 19.6 mph 25.3 mph N/A   Partly Cloudy
3:54 PM 82.0 °F 87.4 °F 73.0 °F 74% 30.04 in 10.0 mi NE 21.9 mph - 0.01 in   Partly Cloudy
4:54 PM 79.0 °F - 72.0 °F 79% 30.06 in 10.0 mi NE 17.3 mph - N/A   Partly Cloudy
5:54 PM 75.9 °F - 72.0 °F 87% 30.08 in 10.0 mi NE 13.8 mph - 0.00 in   Partly Cloudy
6:54 PM 75.0 °F - 71.1 °F 87% 30.10 in 10.0 mi NE 12.7 mph - N/A   Partly Cloudy
7:54 PM 73.9 °F - 72.0 °F 93% 30.12 in 10.0 mi NE 9.2 mph - N/A   Partly Cloudy
8:54 PM 73.9 °F - 72.0 °F 93% 30.12 in 10.0 mi NE 11.5 mph - N/A   Partly Cloudy
9:54 PM 73.0 °F - 71.1 °F 93% 30.13 in 10.0 mi NE 10.4 mph - 0.00 in   Partly Cloudy
10:54 PM 73.0 °F - 70.0 °F 90% 30.12 in 10.0 mi NE 11.5 mph - 0.00 in   Mostly Cloudy
11:54 PM 73.0 °F - 72.0 °F 96% 30.12 in 10.0 mi NNE 16.1 mph - 0.00 in   Partly Cloudy